Powrót do katalogu

STARLINK-30225

AktywnyŁącznośćVLEO
NORAD 57449·PAYLOAD·🇺🇸 United States

Wystrzelony Jul 24, 2023 z Cape Canaveral Space Force Station

Loading…

Następne Przeloty (najbliższe 24 godziny)

TLE

ŚwieżeSource: CelesTrak SupGP

Epoka: Sep 14, 2026, 22:04 UTC

1 57449C 23105V   26257.91993056  .00012329  00000+0  44673-3 0  2574
2 57449  43.0012 274.4629 0001742 260.1519  97.0918 15.27560160    11

Śledź STARLINK-30225 w czasie rzeczywistym z AllMySat

Download on the App Store